Regional Weather Roundup
Issued by NWS

Home | Current Version | Previous Version | Graphics & Text | Print | Product List | Glossary On
Versions: 1 2 3 4 5 6 7 8 9 10 11 12 13 14 15 16 17 18 19 20 21 22 23 24 25 26 27 28 29 30 31 32 33 34 35 36 37 38 39 40 41 42 43 44 45 46 47 48 49 50
000
ASUS45 KABQ 280310
RWRNM
NEW MEXICO REGIONAL WEATHER ROUNDUP
NATIONAL WEATHER SERVICE ALBUQUERQUE NM
900 PM MDT SAT MAY 27 2017

NOTE: "FAIR" MEANS FEW OR NO CLOUDS BELOW 12,000 FEET AGL WITH NO
       SIGNIFICANT WEATHER OR OBSTRUCTIONS TO VISION.

      THIS PRODUCT IS RELEASED AS TWO VERSIONS.  ONE VERSION NEAR
      THE TOP OF THE HOUR CONTAINING PRELIMINARY DATA FROM ALBUQUERQUE
      AND OTHER STATIONS.  A FINAL VERSION WITH ADDITIONAL DATA IS
      ISSUED ABOUT 10 MINUTES AFTER THE HOUR.

NMZ501-503-504-510>518-280400-
NORTHWEST PLATEAU/NORTHCENTRAL MOUNTAINS

CITY           SKY/WX    TMP DP  RH WIND       PRES   REMARKS
FARMINGTON     FAIR      66  10  11 W9        30.09R
LOS ALAMOS     FAIR      64  20  18 NW10      30.19R
SANTA FE       FAIR      62  20  19 N7        30.11R
TAOS           FAIR      55  12  18 NW7       30.20R
ANGEL FIRE     FAIR      53  16  23 W3        30.26R

$$
NMZ402-403-502-505>509-280400-
WESTCENTRAL MOUNTAINS/SOUTHWEST MOUNTAINS

CITY           SKY/WX    TMP DP  RH WIND       PRES   REMARKS
GALLUP         FAIR      63  21  20 NW7       30.17R
GRANTS         FAIR      62  14  15 W8        30.17R
SILVER CITY    FAIR      65  10  12 NW10      30.10R

$$
NMZ407-409-411-412-280400-
SOUTHERN DESERTS

CITY           SKY/WX    TMP DP  RH WIND       PRES   REMARKS
DEMING         FAIR      77   8   7 NW8       30.01R
LAS CRUCES     FAIR      76  12   9 NW6       30.03R
HOLLOMAN AFB   FAIR      80   3   5 SW15      30.01R
ALAMOGORDO     FAIR      72   9   8 S7        30.00R
T OR C         LGT RAIN  79   2   5 W12       30.02R

$$
NMZ519>523-280400-
CENTRAL VALLEYS/CENTRAL HIGHLANDS

CITY           SKY/WX    TMP DP  RH WIND       PRES   REMARKS
ALBUQUERQUE    FAIR      76  17  11 N12       30.06R
MORIARTY ARPT  FAIR      60  21  22 N7        30.11S
CLINES CORNERS FAIR      60  17  18 N13       30.15R
BELEN          FAIR      71  10   9 NW9       30.04R
SOCORRO        FAIR      77  12   8 N6G17     30.01R

$$
NMZ524>526-539-540-280400-
SOUTHCENTRAL MOUNTAINS

CITY           SKY/WX    TMP DP  RH WIND       PRES   REMARKS
RUIDOSO        FAIR      66   1   7 SW17      30.17R

$$
NMZ527>531-280400-
NORTHEAST HIGHLANDS/NORTHEAST PLAINS

CITY           SKY/WX    TMP DP  RH WIND       PRES   REMARKS
LAS VEGAS      FAIR      58  18  21 NW10      30.15R
RATON          FAIR      48  41  76 NE22G30   30.20R
CLAYTON        FAIR      50  46  86 N22G37    30.15R

$$
NMZ532>537-280400-
EASTCENTRAL PLAINS

CITY           SKY/WX    TMP DP  RH WIND       PRES   REMARKS
SANTA ROSA     FAIR      71  16  12 NW7       29.99R
TUCUMCARI      FAIR      65  28  24 NW8       29.91R
CANNON AFB     FAIR      76  13   9 NW8       29.96R
CLOVIS AIRPORT FAIR      70  18  13 NW8       29.95R

$$
NMZ028-029-538-280400-
SOUTHEAST PLAINS

CITY           SKY/WX    TMP DP  RH WIND       PRES   REMARKS
ROSWELL        FAIR      77  10   7 SW10      29.90R
ARTESIA        FAIR      79  10   7 SW12      29.92R
CARLSBAD       FAIR      79  13   8 NW7       29.90R
HOBBS          FAIR      81   5   5 W12       29.93R


$$




USA.gov is the U.S. government's official web portal to all federal, state and local government web resources and services.